Time,TemperatureF,DewpointF,PressureIn,WindDirection,WindDirectionDegrees,WindSpeedMPH,WindSpeedGustMPH,Humidity,HourlyPrecipIn,Conditions,Clouds,dailyrainin,SoftwareType,DateUTC
2013-06-30 00:02:00,61.0,61.0,29.54,WNW,299,5.0,11.0,100,0.00,,,0.16,,2013-06-30 04:02:00,
2013-06-30 00:12:00,61.0,61.0,29.54,WNW,283,6.0,12.0,100,0.00,,,0.16,,2013-06-30 04:12:00,
2013-06-30 00:22:00,61.0,61.0,29.55,NW,314,9.0,17.0,100,0.00,,,0.16,,2013-06-30 04:22:00,
2013-06-30 00:33:00,61.0,61.0,29.55,NW,314,9.0,17.0,100,0.00,,,0.16,,2013-06-30 04:33:00,
2013-06-30 00:43:00,61.0,61.0,29.55,West,277,8.0,16.0,100,0.00,,,0.16,,2013-06-30 04:43:00,
2013-06-30 00:53:00,61.0,61.0,29.55,WNW,286,5.0,14.0,100,0.00,,,0.16,,2013-06-30 04:53:00,
2013-06-30 01:02:00,61.0,61.0,29.55,WNW,286,5.0,14.0,100,0.00,,,0.16,,2013-06-30 05:02:00,
2013-06-30 01:12:00,61.0,61.0,29.55,WNW,296,11.0,19.0,100,0.00,,,0.16,,2013-06-30 05:12:00,
2013-06-30 01:22:00,61.0,61.0,29.55,WNW,293,8.0,16.0,100,0.00,,,0.16,,2013-06-30 05:22:00,
2013-06-30 01:34:00,61.0,61.0,29.55,WNW,293,8.0,16.0,100,0.00,,,0.16,,2013-06-30 05:34:00,
2013-06-30 01:43:00,61.0,61.0,29.55,West,280,7.0,11.0,100,0.00,,,0.16,,2013-06-30 05:43:00,
2013-06-30 01:53:00,61.0,61.0,29.55,West,274,7.0,15.0,100,0.00,,,0.16,,2013-06-30 05:53:00,
2013-06-30 02:02:00,61.0,61.0,29.55,West,274,7.0,15.0,100,0.00,,,0.16,,2013-06-30 06:02:00,
2013-06-30 02:12:00,61.0,61.0,29.55,WNW,288,7.0,15.0,100,0.00,,,0.16,,2013-06-30 06:12:00,
2013-06-30 02:23:00,61.0,61.0,29.55,NW,306,7.0,12.0,100,0.00,,,0.15,,2013-06-30 06:23:00,
2013-06-30 02:34:00,61.0,61.0,29.55,NW,306,7.0,12.0,100,0.00,,,0.15,,2013-06-30 06:34:00,
2013-06-30 02:43:00,61.0,61.0,29.55,WNW,284,8.0,15.0,100,0.00,,,0.15,,2013-06-30 06:43:00,
2013-06-30 02:53:00,61.0,61.0,29.56,West,281,7.0,11.0,100,0.00,,,0.15,,2013-06-30 06:53:00,
2013-06-30 03:02:00,61.0,61.0,29.56,West,281,7.0,11.0,100,0.00,,,0.15,,2013-06-30 07:02:00,
2013-06-30 03:12:00,61.0,61.0,29.55,WNW,294,6.0,13.0,100,0.00,,,0.15,,2013-06-30 07:12:00,
2013-06-30 03:22:00,61.0,61.0,29.55,West,279,7.0,13.0,100,0.00,,,0.15,,2013-06-30 07:22:00,
2013-06-30 03:33:00,61.0,61.0,29.55,West,279,7.0,13.0,100,0.00,,,0.15,,2013-06-30 07:33:00,
2013-06-30 03:44:00,61.0,61.0,29.56,WNW,295,6.0,10.0,100,0.00,,,0.15,,2013-06-30 07:44:00,
2013-06-30 03:53:00,61.0,61.0,29.56,WNW,289,5.0,12.0,100,0.00,,,0.15,,2013-06-30 07:53:00,
2013-06-30 04:02:00,61.0,61.0,29.56,WNW,289,5.0,12.0,100,0.00,,,0.15,,2013-06-30 08:02:00,
2013-06-30 04:12:00,61.0,61.0,29.56,WNW,300,6.0,9.0,100,0.00,,,0.15,,2013-06-30 08:12:00,
2013-06-30 04:22:00,61.0,61.0,29.56,WNW,295,4.0,8.0,100,0.00,,,0.14,,2013-06-30 08:22:00,
2013-06-30 04:34:00,61.0,61.0,29.56,WNW,295,4.0,8.0,100,0.00,,,0.14,,2013-06-30 08:34:00,
2013-06-30 04:42:00,61.0,61.0,29.57,WNW,298,4.0,9.0,100,0.00,,,0.14,,2013-06-30 08:42:00,
2013-06-30 04:53:00,61.0,61.0,29.57,NW,311,5.0,10.0,100,0.00,,,0.14,,2013-06-30 08:53:00,
2013-06-30 05:02:00,61.0,61.0,29.57,NW,311,5.0,10.0,100,0.00,,,0.14,,2013-06-30 09:02:00,
2013-06-30 05:12:00,61.0,61.0,29.57,WNW,297,7.0,10.0,100,0.00,,,0.14,,2013-06-30 09:12:00,
2013-06-30 05:23:00,61.0,61.0,29.58,WNW,284,6.0,10.0,100,0.00,,,0.14,,2013-06-30 09:23:00,
2013-06-30 05:34:00,61.0,61.0,29.58,WNW,284,6.0,10.0,100,0.00,,,0.14,,2013-06-30 09:34:00,
2013-06-30 05:43:00,61.0,61.0,29.59,WNW,302,6.0,9.0,100,0.00,,,0.14,,2013-06-30 09:43:00,
2013-06-30 05:53:00,61.0,61.0,29.59,NW,306,8.0,13.0,100,0.00,,,0.14,,2013-06-30 09:53:00,
2013-06-30 06:02:00,61.0,61.0,29.59,NW,306,8.0,13.0,100,0.00,,,0.14,,2013-06-30 10:02:00,
2013-06-30 06:11:00,61.0,61.0,29.59,NW,315,7.0,13.0,100,0.00,,,0.14,,2013-06-30 10:11:00,
2013-06-30 06:22:00,61.0,61.0,29.60,NW,316,5.0,7.0,100,0.00,,,0.14,,2013-06-30 10:22:00,
2013-06-30 06:33:00,61.0,61.0,29.60,NW,316,5.0,7.0,100,0.00,,,0.14,,2013-06-30 10:33:00,
2013-06-30 06:42:00,61.0,61.0,29.60,NW,310,3.0,6.0,100,0.00,,,0.14,,2013-06-30 10:42:00,
2013-06-30 06:53:00,61.0,61.0,29.61,WNW,297,3.0,7.0,100,0.00,,,0.14,,2013-06-30 10:53:00,
2013-06-30 07:02:00,61.0,61.0,29.61,WNW,297,3.0,7.0,100,0.00,,,0.14,,2013-06-30 11:02:00,
2013-06-30 07:11:00,61.0,61.0,29.61,WNW,295,2.0,6.0,100,0.00,,,0.14,,2013-06-30 11:11:00,
2013-06-30 07:22:00,61.0,61.0,29.61,WNW,303,4.0,7.0,100,0.00,,,0.14,,2013-06-30 11:22:00,
2013-06-30 07:33:00,61.0,61.0,29.61,WNW,303,4.0,7.0,100,0.00,,,0.14,,2013-06-30 11:33:00,
2013-06-30 07:43:00,61.0,61.0,29.62,WNW,300,6.0,9.0,100,0.00,,,0.14,,2013-06-30 11:43:00,
2013-06-30 07:53:00,61.0,61.0,29.63,WNW,302,4.0,11.0,100,0.00,,,0.14,,2013-06-30 11:53:00,
2013-06-30 08:02:00,61.0,61.0,29.63,WNW,302,4.0,11.0,100,0.00,,,0.14,,2013-06-30 12:02:00,
2013-06-30 08:11:00,61.0,61.0,29.64,NW,309,4.0,8.0,100,0.00,,,0.14,,2013-06-30 12:11:00,
2013-06-30 08:24:00,61.0,61.0,29.64,WNW,296,5.0,9.0,100,0.00,,,0.14,,2013-06-30 12:24:00,
2013-06-30 08:33:00,61.0,61.0,29.64,WNW,296,5.0,9.0,100,0.00,,,0.14,,2013-06-30 12:33:00,
2013-06-30 08:43:00,61.0,61.0,29.65,NW,307,6.0,10.0,100,0.00,,,0.14,,2013-06-30 12:43:00,
2013-06-30 08:52:00,61.0,61.0,29.65,WNW,303,7.0,10.0,100,0.00,,,0.14,,2013-06-30 12:52:00,
2013-06-30 09:02:00,61.0,61.0,29.65,WNW,303,7.0,10.0,100,0.00,,,0.14,,2013-06-30 13:02:00,
2013-06-30 09:12:00,61.0,61.0,29.65,NW,307,4.0,7.0,100,0.00,,,0.14,,2013-06-30 13:12:00,
2013-06-30 09:22:00,60.0,60.0,29.65,NW,321,8.0,13.0,100,0.00,,,0.14,,2013-06-30 13:22:00,
2013-06-30 09:34:00,60.0,60.0,29.65,NW,321,8.0,13.0,100,0.00,,,0.14,,2013-06-30 13:34:00,
2013-06-30 09:44:00,61.0,61.0,29.66,NW,313,4.0,10.0,100,0.00,,,0.14,,2013-06-30 13:44:00,
2013-06-30 09:53:00,62.0,62.0,29.66,WNW,300,7.0,11.0,100,0.00,,,0.14,,2013-06-30 13:53:00,
2013-06-30 10:02:00,62.0,62.0,29.66,WNW,300,7.0,11.0,100,0.00,,,0.14,,2013-06-30 14:02:00,
2013-06-30 10:11:00,62.0,62.0,29.66,NW,310,5.0,9.0,100,0.00,,,0.14,,2013-06-30 14:11:00,
2013-06-30 10:33:00,63.0,63.0,29.66,WNW,285,5.0,9.0,100,0.00,,,0.14,,2013-06-30 14:33:00,
2013-06-30 10:44:00,63.0,63.0,29.67,NW,306,6.0,10.0,100,0.00,,,0.14,,2013-06-30 14:44:00,
2013-06-30 10:52:00,63.0,63.0,29.67,WNW,296,6.0,9.0,100,0.00,,,0.14,,2013-06-30 14:52:00,
2013-06-30 11:02:00,63.0,63.0,29.67,WNW,296,6.0,9.0,100,0.00,,,0.14,,2013-06-30 15:02:00,
2013-06-30 11:12:00,64.0,64.0,29.67,NW,304,4.0,9.0,100,0.00,,,0.14,,2013-06-30 15:12:00,
2013-06-30 11:23:00,64.0,64.0,29.67,WNW,299,4.0,6.0,100,0.00,,,0.01,,2013-06-30 15:23:00,
2013-06-30 11:34:00,64.0,64.0,29.67,WNW,299,4.0,6.0,100,0.00,,,0.01,,2013-06-30 15:34:00,
2013-06-30 11:44:00,65.0,65.0,29.67,NW,307,6.0,8.0,100,0.00,,,0.01,,2013-06-30 15:44:00,
2013-06-30 11:53:00,65.0,65.0,29.67,NW,311,4.0,8.0,100,0.00,,,0.01,,2013-06-30 15:53:00,
2013-06-30 12:01:00,65.0,65.0,29.67,NW,311,4.0,8.0,100,0.00,,,0.01,,2013-06-30 16:01:00,
2013-06-30 12:11:00,65.0,65.0,29.67,NW,309,1.0,5.0,100,0.00,,,0.01,,2013-06-30 16:11:00,
2013-06-30 12:21:00,66.0,66.0,29.67,NW,307,3.0,5.0,100,0.00,,,0.01,,2013-06-30 16:21:00,
2013-06-30 12:34:00,66.0,66.0,29.67,NW,307,3.0,5.0,100,0.00,,,0.01,,2013-06-30 16:34:00,
2013-06-30 13:02:00,-999.0,-99.9,29.68,WNW,299,4.0,4.0,-999,0.00,,,0.01,,2013-06-30 17:02:00,
2013-06-30 13:23:00,66.0,66.0,29.68,WNW,284,6.0,10.0,100,0.00,,,0.01,,2013-06-30 17:23:00,
2013-06-30 13:34:00,66.0,66.0,29.68,WNW,282,9.0,12.0,100,0.00,,,0.01,,2013-06-30 17:34:00,
2013-06-30 13:43:00,66.0,66.0,29.68,West,278,6.0,12.0,100,0.00,,,0.01,,2013-06-30 17:43:00,
2013-06-30 13:52:00,66.0,66.0,29.68,West,278,6.0,12.0,100,0.00,,,0.01,,2013-06-30 17:52:00,
2013-06-30 14:02:00,66.0,66.0,29.68,WNW,282,9.0,14.0,100,0.00,,,0.01,,2013-06-30 18:02:00,
2013-06-30 14:12:00,66.0,66.0,29.68,WNW,294,9.0,15.0,100,0.00,,,0.01,,2013-06-30 18:12:00,
2013-06-30 14:22:00,66.0,66.0,29.68,WNW,294,9.0,15.0,100,0.00,,,0.01,,2013-06-30 18:22:00,
2013-06-30 14:34:00,64.0,64.0,29.68,WNW,285,9.0,14.0,100,0.00,,,0.01,,2013-06-30 18:34:00,
2013-06-30 14:43:00,64.0,64.0,29.69,West,278,8.0,12.0,100,0.00,,,0.01,,2013-06-30 18:43:00,
2013-06-30 14:53:00,64.0,64.0,29.69,West,278,8.0,12.0,100,0.00,,,0.01,,2013-06-30 18:53:00,
2013-06-30 15:12:00,64.0,64.0,29.68,WNW,285,7.0,12.0,100,0.00,,,0.01,,2013-06-30 19:12:00,
2013-06-30 15:22:00,64.0,64.0,29.68,WNW,285,7.0,12.0,100,0.00,,,0.01,,2013-06-30 19:22:00,
2013-06-30 15:33:00,65.0,65.0,29.68,WNW,297,7.0,11.0,100,0.00,,,0.01,,2013-06-30 19:33:00,
2013-06-30 15:43:00,65.0,65.0,29.68,WNW,283,7.0,11.0,100,0.00,,,0.00,,2013-06-30 19:43:00,
2013-06-30 15:53:00,65.0,65.0,29.68,WNW,283,7.0,11.0,100,0.00,,,0.00,,2013-06-30 19:53:00,
2013-06-30 16:02:00,65.0,65.0,29.69,West,271,5.0,9.0,100,0.00,,,0.00,,2013-06-30 20:02:00,
2013-06-30 16:12:00,64.0,64.0,29.69,WNW,282,8.0,10.0,100,0.00,,,0.00,,2013-06-30 20:12:00,
2013-06-30 16:22:00,64.0,64.0,29.69,WNW,282,8.0,10.0,100,0.00,,,0.00,,2013-06-30 20:22:00,
2013-06-30 16:34:00,64.0,64.0,29.69,WNW,289,7.0,14.0,100,0.00,,,0.00,,2013-06-30 20:34:00,
2013-06-30 16:42:00,65.0,65.0,29.70,West,279,7.0,13.0,100,0.00,,,0.00,,2013-06-30 20:42:00,
2013-06-30 16:52:00,65.0,65.0,29.70,West,279,7.0,13.0,100,0.00,,,0.00,,2013-06-30 20:52:00,
2013-06-30 17:01:00,65.0,65.0,29.70,WNW,300,8.0,11.0,100,0.00,,,0.00,,2013-06-30 21:01:00,
2013-06-30 17:11:00,66.0,66.0,29.70,WNW,287,5.0,9.0,100,0.00,,,0.00,,2013-06-30 21:11:00,
2013-06-30 17:22:00,66.0,66.0,29.70,WNW,287,5.0,9.0,100,0.00,,,0.00,,2013-06-30 21:22:00,
2013-06-30 17:34:00,65.0,65.0,29.70,WNW,295,6.0,9.0,99,0.00,,,0.00,,2013-06-30 21:34:00,
2013-06-30 17:43:00,65.0,65.0,29.70,West,280,5.0,10.0,99,0.01,,,0.01,,2013-06-30 21:43:00,
2013-06-30 17:53:00,65.0,65.0,29.70,West,280,5.0,10.0,99,0.01,,,0.01,,2013-06-30 21:53:00,
2013-06-30 18:01:00,64.0,64.0,29.71,West,271,4.0,8.0,99,0.01,,,0.01,,2013-06-30 22:01:00,
2013-06-30 18:22:00,64.0,64.0,29.71,WNW,285,4.0,9.0,100,0.01,,,0.01,,2013-06-30 22:22:00,
2013-06-30 18:34:00,64.0,64.0,29.72,WNW,283,4.0,7.0,100,0.01,,,0.01,,2013-06-30 22:34:00,
2013-06-30 18:43:00,64.0,64.0,29.73,WNW,283,4.0,8.0,100,0.00,,,0.01,,2013-06-30 22:43:00,
2013-06-30 18:53:00,64.0,64.0,29.73,WNW,283,4.0,8.0,100,0.00,,,0.01,,2013-06-30 22:53:00,
2013-06-30 19:02:00,63.0,63.0,29.73,WNW,293,6.0,10.0,100,0.00,,,0.01,,2013-06-30 23:02:00,
2013-06-30 19:11:00,64.0,64.0,29.74,WNW,295,5.0,7.0,100,0.00,,,0.01,,2013-06-30 23:11:00,
2013-06-30 19:22:00,64.0,64.0,29.74,WNW,295,5.0,7.0,100,0.00,,,0.01,,2013-06-30 23:22:00,
2013-06-30 19:33:00,63.0,63.0,29.74,WNW,283,5.0,9.0,100,0.00,,,0.01,,2013-06-30 23:33:00,
2013-06-30 19:44:00,62.0,62.0,29.74,WNW,283,7.0,11.0,100,0.00,,,0.01,,2013-06-30 23:44:00,
2013-06-30 19:53:00,62.0,62.0,29.74,WNW,283,7.0,11.0,100,0.00,,,0.01,,2013-06-30 23:53:00,
2013-06-30 20:01:00,61.0,61.0,29.74,WNW,284,6.0,12.0,100,0.00,,,0.01,,2013-07-01 00:01:00,
2013-06-30 20:11:00,61.0,61.0,29.74,WNW,285,2.0,4.0,100,0.00,,,0.01,,2013-07-01 00:11:00,
2013-06-30 20:22:00,61.0,61.0,29.74,WNW,285,2.0,4.0,100,0.00,,,0.01,,2013-07-01 00:22:00,
2013-06-30 20:33:00,61.0,61.0,29.74,WNW,284,3.0,5.0,100,0.00,,,0.01,,2013-07-01 00:33:00,
2013-06-30 20:42:00,61.0,61.0,29.74,West,280,3.0,7.0,100,0.00,,,0.01,,2013-07-01 00:42:00,
2013-06-30 20:52:00,61.0,61.0,29.74,West,280,3.0,7.0,100,0.00,,,0.01,,2013-07-01 00:52:00,
2013-06-30 21:01:00,61.0,61.0,29.75,West,281,1.0,9.0,100,0.00,,,0.01,,2013-07-01 01:01:00,
2013-06-30 21:11:00,61.0,61.0,29.75,West,281,1.0,9.0,100,0.00,,,0.01,,2013-07-01 01:11:00,
2013-06-30 21:22:00,61.0,61.0,29.75,West,281,1.0,9.0,100,0.00,,,0.01,,2013-07-01 01:22:00,
2013-06-30 21:33:00,62.0,62.0,29.76,West,281,3.0,8.0,100,0.00,,,0.01,,2013-07-01 01:33:00,
2013-06-30 21:42:00,62.0,62.0,29.76,WNW,284,5.0,8.0,100,0.00,,,0.01,,2013-07-01 01:42:00,
2013-06-30 21:52:00,62.0,62.0,29.76,WNW,284,5.0,8.0,100,0.00,,,0.01,,2013-07-01 01:52:00,
2013-06-30 22:02:00,61.0,61.0,29.76,WNW,288,8.0,10.0,100,0.00,,,0.01,,2013-07-01 02:02:00,
2013-06-30 22:12:00,61.0,61.0,29.77,WNW,285,6.0,11.0,100,0.00,,,0.01,,2013-07-01 02:12:00,
2013-06-30 22:22:00,61.0,61.0,29.77,WNW,285,6.0,11.0,100,0.00,,,0.01,,2013-07-01 02:22:00,
2013-06-30 22:33:00,61.0,61.0,29.77,WNW,299,4.0,9.0,100,0.00,,,0.01,,2013-07-01 02:33:00,
2013-06-30 22:44:00,61.0,61.0,29.77,WNW,299,4.0,9.0,100,0.00,,,0.01,,2013-07-01 02:44:00,
2013-06-30 22:54:00,61.0,61.0,29.77,WNW,300,4.0,10.0,100,0.00,,,0.01,,2013-07-01 02:54:00,
2013-06-30 23:01:00,61.0,61.0,29.77,WNW,296,7.0,12.0,100,0.00,,,0.01,,2013-07-01 03:01:00,
2013-06-30 23:12:00,61.0,61.0,29.77,WNW,296,7.0,12.0,100,0.00,,,0.01,,2013-07-01 03:12:00,
2013-06-30 23:23:00,61.0,61.0,29.77,NW,310,6.0,9.0,100,0.00,,,0.01,,2013-07-01 03:23:00,
2013-06-30 23:33:00,61.0,61.0,29.77,WNW,301,6.0,9.0,100,0.00,,,0.01,,2013-07-01 03:33:00,
2013-06-30 23:43:00,61.0,61.0,29.76,NW,311,6.0,9.0,100,0.00,,,0.01,,2013-07-01 03:43:00,
2013-06-30 23:52:00,61.0,61.0,29.76,NW,311,6.0,9.0,100,0.00,,,0.01,,2013-07-01 03:52:00,